Location: Colebrook
(42.0017°N, 73.0973°W)
Time: 16:39:04
(UTC-05:00)

Vanguard 2 - Pass Details

Date: 01 November 2021
Orbit: 554 x 2936 km, 32.9° (Epoch: 04 December)

Event Time Altitude Azimuth Distance (km) Brightness Sun altitude
Rises 19:23:39 0° 174° (S) 6,401 12.2 -18.6°
Reaches altitude 10° 19:34:17 10° 142° (SE) 5,726 11.6 -20.6°
Maximum altitude 19:37:09 11° 132° (SE) 5,705 11.5 -21.1°
Enters shadow 19:38:28 10° 128° (SE) 5,721 11.5 -21.3°
